When you browse on this site, cookies collect data to enhance your experience and personalize the content and advertising you see.
Visit our Privacy Policy to learn more. By continuing to use the site, you agree to this use of cookies and data.
  • In United Kingdom
  • List of Countries
  • For 7 days
  • Water Temperature
  • Satellite Maps
  • Weather Map
  • Weather Widgets
  • user-avatar
    Login

    Hourly Weather Manika

    Today, 22 May, Wednesday

    Time Temperature Precipitation Wind Pressure Humidity
    00:00 +14°C° 0 mm 1 mps 681 mmHg 66%
    01:00 +14°C° 0 mm 1 mps 680 mmHg 70%
    02:00 +13°C° 0 mm 1 mps 680 mmHg 74%
    03:00 +13°C° 0 mm 1 mps 680 mmHg 76%
    04:00 +13°C° 0 mm 1 mps 680 mmHg 78%
    05:00 +12°C° 0 mm 1 mps 680 mmHg 80%
    06:00 +14°C° 0 mm 1 mps 681 mmHg 71%
    07:00 +16°C° 0 mm 1 mps 682 mmHg 62%
    08:00 +19°C° 0 mm 1 mps 683 mmHg 53%
    09:00 +22°C° 0 mm 1 mps 683 mmHg 44%
    10:00 +24°C° 0 mm 2 mps 683 mmHg 35%
    11:00 +26°C° 0 mm 3 mps 684 mmHg 26%
    12:00 +27°C° 0 mm 3 mps 683 mmHg 26%
    13:00 +27°C° 0 mm 3 mps 683 mmHg 25%
    14:00 +28°C° 0 mm 3 mps 683 mmHg 25%
    15:00 +26°C° 0 mm 3 mps 682 mmHg 30%
    16:00 +24°C° 0 mm 2 mps 682 mmHg 35%
    17:00 +23°C° 0 mm 2 mps 681 mmHg 40%
    18:00 +20°C° 0 mm 2 mps 681 mmHg 48%
    19:00 +17°C° 0 mm 2 mps 681 mmHg 56%
    20:00 +15°C° 0 mm 1 mps 681 mmHg 64%
    21:00 +14°C° 0 mm 1 mps 681 mmHg 68%
    22:00 +14°C° 0 mm 1 mps 681 mmHg 72%
    23:00 +13°C° 0 mm 1 mps 681 mmHg 76%

    Tomorrow, 23 May, Thursday

    Time Temperature Precipitation Wind Pressure Humidity
    00:00 +13°C° 0 mm 1 mps 681 mmHg 79%
    01:00 +13°C° 0 mm 1 mps 681 mmHg 82%
    02:00 +12°C° 0 mm 1 mps 681 mmHg 84%
    03:00 +12°C° 0 mm 1 mps 681 mmHg 86%
    04:00 +12°C° 0 mm 1 mps 681 mmHg 87%
    05:00 +11°C° 0 mm 1 mps 681 mmHg 89%
    06:00 +14°C° 0 mm 1 mps 681 mmHg 80%
    07:00 +16°C° 0 mm 1 mps 682 mmHg 71%
    08:00 +17°C° 0 mm 0 mps 683 mmHg 62%
    09:00 +21°C° 0 mm 1 mps 683 mmHg 53%
    10:00 +24°C° 0 mm 1 mps 684 mmHg 44%
    11:00 +26°C° 0 mm 2 mps 684 mmHg 34%
    12:00 +27°C° 0 mm 2 mps 683 mmHg 33%
    13:00 +27°C° 0 mm 3 mps 683 mmHg 31%
    14:00 +28°C° 0 mm 3 mps 682 mmHg 29%
    15:00 +26°C° 0 mm 3 mps 682 mmHg 34%
    16:00 +25°C° 0 mm 3 mps 681 mmHg 39%
    17:00 +23°C° 0 mm 2 mps 681 mmHg 44%
    18:00 +20°C° 0 mm 2 mps 681 mmHg 55%
    19:00 +18°C° 0 mm 2 mps 681 mmHg 66%
    20:00 +15°C° 0 mm 2 mps 681 mmHg 77%
    21:00 +15°C° 0 mm 1 mps 681 mmHg 82%
    22:00 +14°C° 0 mm 1 mps 681 mmHg 87%
    23:00 +14°C° 0 mm 1 mps 681 mmHg 92%

    Day after tomorrow, 24 May, Friday

    Time Temperature Precipitation Wind Pressure Humidity
    00:00 +14°C° 0 mm 1 mps 681 mmHg 93%
    01:00 +13°C° 0 mm 1 mps 681 mmHg 95%
    02:00 +13°C° 0 mm 1 mps 681 mmHg 96%
    03:00 +13°C° 0 mm 1 mps 681 mmHg 96%
    04:00 +13°C° 0 mm 1 mps 681 mmHg 97%
    05:00 +13°C° 0 mm 1 mps 681 mmHg 97%
    06:00 +15°C° 0 mm 1 mps 682 mmHg 91%
    07:00 +16°C° 0 mm 1 mps 683 mmHg 86%
    08:00 +19°C° 0 mm 1 mps 683 mmHg 80%
    09:00 +21°C° 0 mm 1 mps 684 mmHg 71%
    10:00 +21°C° 0 mm 2 mps 684 mmHg 62%
    11:00 +24°C° 0 mm 2 mps 684 mmHg 54%
    12:00 +25°C° 0 mm 2 mps 684 mmHg 52%
    13:00 +25°C° 0 mm 2 mps 683 mmHg 50%
    14:00 +25°C° 0 mm 2 mps 683 mmHg 48%
    15:00 +24°C° 0 mm 2 mps 683 mmHg 51%
    16:00 +23°C° 0 mm 2 mps 682 mmHg 55%
    17:00 +21°C° 0 mm 2 mps 682 mmHg 59%
    18:00 +19°C° 0 mm 2 mps 682 mmHg 66%
    19:00 +19°C° 0 mm 1 mps 683 mmHg 74%
    20:00 +16°C° 0 mm 1 mps 683 mmHg 82%
    21:00 +15°C° 0 mm 1 mps 683 mmHg 86%
    22:00 +15°C° 0 mm 1 mps 683 mmHg 89%
    23:00 +14°C° 0 mm 1 mps 683 mmHg 93%

    25 May, Saturday

    Time Temperature Precipitation Wind Pressure Humidity
    00:00 +14°C° 0 mm 1 mps 682 mmHg 94%
    01:00 +14°C° 0 mm 1 mps 682 mmHg 96%
    02:00 +14°C° 0 mm 1 mps 682 mmHg 97%
    03:00 +14°C° 0 mm 1 mps 682 mmHg 97%
    04:00 +13°C° 0 mm 0 mps 682 mmHg 97%
    05:00 +13°C° 0 mm 0 mps 682 mmHg 97%
    06:00 +15°C° 0 mm 1 mps 683 mmHg 91%
    07:00 +16°C° 0 mm 1 mps 684 mmHg 85%
    08:00 +18°C° 0 mm 1 mps 684 mmHg 80%
    09:00 +20°C° 0 mm 1 mps 684 mmHg 69%
    10:00 +22°C° 0 mm 1 mps 684 mmHg 59%
    11:00 +23°C° 0 mm 2 mps 685 mmHg 48%
    12:00 +24°C° 0 mm 2 mps 684 mmHg 44%
    13:00 +25°C° 0 mm 2 mps 683 mmHg 40%
    14:00 +26°C° 0 mm 2 mps 683 mmHg 35%
    15:00 +25°C° 0 mm 2 mps 682 mmHg 38%
    16:00 +23°C° 0 mm 2 mps 682 mmHg 40%
    17:00 +22°C° 0 mm 1 mps 682 mmHg 42%
    18:00 +20°C° 0 mm 1 mps 682 mmHg 48%
    19:00 +18°C° 0 mm 1 mps 682 mmHg 54%
    20:00 +15°C° 0 mm 1 mps 683 mmHg 60%
    21:00 +14°C° 0 mm 1 mps 682 mmHg 65%
    22:00 +13°C° 0 mm 1 mps 682 mmHg 70%
    23:00 +13°C° 0 mm 1 mps 682 mmHg 75%

    26 May, Sunday

    Time Temperature Precipitation Wind Pressure Humidity
    00:00 +12°C° 0 mm 1 mps 682 mmHg 80%
    01:00 +11°C° 0 mm 0 mps 681 mmHg 84%
    02:00 +11°C° 0 mm 0 mps 681 mmHg 89%
    03:00 +10°C° 0 mm 0 mps 681 mmHg 91%
    04:00 +10°C° 0 mm 0 mps 681 mmHg 93%
    05:00 +10°C° 0 mm 0 mps 681 mmHg 94%
    06:00 +12°C° 0 mm 0 mps 682 mmHg 87%
    07:00 +14°C° 0 mm 0 mps 683 mmHg 80%
    08:00 +16°C° 0 mm 0 mps 683 mmHg 73%
    09:00 +18°C° 0 mm 0 mps 683 mmHg 63%
    10:00 +22°C° 0 mm 1 mps 684 mmHg 53%
    11:00 +25°C° 0 mm 1 mps 684 mmHg 44%
    12:00 +25°C° 0 mm 1 mps 683 mmHg 41%
    13:00 +25°C° 0 mm 2 mps 682 mmHg 39%
    14:00 +26°C° 0 mm 2 mps 682 mmHg 37%
    15:00 +24°C° 0 mm 2 mps 681 mmHg 41%
    16:00 +23°C° 0 mm 1 mps 681 mmHg 45%
    17:00 +22°C° 0 mm 1 mps 681 mmHg 49%
    18:00 +20°C° 0 mm 1 mps 681 mmHg 56%
    19:00 +18°C° 0 mm 1 mps 681 mmHg 64%
    20:00 +15°C° 0 mm 1 mps 681 mmHg 71%
    21:00 +14°C° 0 mm 1 mps 681 mmHg 75%
    22:00 +14°C° 0 mm 1 mps 681 mmHg 79%
    23:00 +13°C° 0 mm 1 mps 681 mmHg 83%

    27 May, Monday

    Time Temperature Precipitation Wind Pressure Humidity
    00:00 +13°C° 0 mm 1 mps 681 mmHg 84%
    01:00 +12°C° 0 mm 1 mps 680 mmHg 86%
    02:00 +12°C° 0 mm 1 mps 680 mmHg 88%
    03:00 +11°C° 0 mm 1 mps 680 mmHg 89%
    04:00 +11°C° 0 mm 1 mps 680 mmHg 89%
    05:00 +11°C° 0 mm 1 mps 680 mmHg 90%
    06:00 +13°C° 0 mm 1 mps 681 mmHg 81%
    07:00 +14°C° 0 mm 0 mps 682 mmHg 72%
    08:00 +16°C° 0 mm 0 mps 683 mmHg 63%
    09:00 +20°C° 0 mm 1 mps 683 mmHg 53%
    10:00 +23°C° 0 mm 1 mps 683 mmHg 44%
    11:00 +26°C° 0 mm 1 mps 683 mmHg 34%
    12:00 +26°C° 0 mm 1 mps 683 mmHg 32%
    13:00 +26°C° 0 mm 1 mps 682 mmHg 30%
    14:00 +27°C° 0 mm 2 mps 681 mmHg 28%
    15:00 +25°C° 0 mm 2 mps 681 mmHg 33%
    16:00 +24°C° 0 mm 2 mps 681 mmHg 37%
    17:00 +21°C° 0 mm 2 mps 680 mmHg 42%
    18:00 +20°C° 0 mm 1 mps 681 mmHg 51%
    19:00 +18°C° 0 mm 1 mps 681 mmHg 60%
    20:00 +15°C° 0 mm 1 mps 681 mmHg 69%
    21:00 +14°C° 0 mm 1 mps 681 mmHg 75%
    22:00 +14°C° 0 mm 1 mps 681 mmHg 81%
    23:00 +13°C° 0 mm 1 mps 681 mmHg 87%
    Show more